This demonstration page uses our WeatherBlox Daily Observations layout. Learn more.

Left ArrowRight Arrow

Hourly Observations for July 2, 2022

Temp ( °F °C ) Dew Point ( °F °C ) Humidity (%) Winds ( mph kmh ) Pressure ( in mb ) Visibility ( mi km ) Precip ( " mm )
12:15 am 00:15 Clear 65 18.2 62 16.7 91 91 ESE 5 7 29.99 1016 10 16 0.00 0.00
12:35 am 00:35 Clear 64 17.6 62 16.4 93 93 E 5 7 30.00 1016 10 16 0.00 0.00
12:55 am 00:55 Partly Cloudy 64 18 62 16.5 91 91 ENE 5 7 29.98 1015 10 16 0.00 0.00
1:15 am 01:15 Partly Cloudy 64 17.6 61 16.3 92 92 ENE 7 11 29.98 1015 10 16 0.00 0.00
1:35 am 01:35 Clear 64 17.5 61 16.1 92 92 ENE 5 7 29.98 1015 10 16 0.00 0.00
1:55 am 01:55 Clear 63 17.3 61 15.9 92 92 E 6 9 29.98 1015 10 16 0.00 0.00
2:15 am 02:15 Clear 63 17 60 15.6 92 92 E 5 7 29.98 1015 10 16 0.00 0.00
2:35 am 02:35 Mostly Cloudy 62 16.9 60 15.6 92 92 NNE 3 6 29.98 1015 10 16 0.00 0.00
2:55 am 02:55 Cloudy 62 16.9 60 15.8 93 93 NE 3 6 29.98 1015 10 16 0.00 0.00
3:15 am 03:15 Mostly Cloudy 63 17 60 15.7 92 92 E 3 6 29.98 1015 10 16 0.00 0.00
3:35 am 03:35 Mostly Cloudy 63 17.2 60 15.7 91 91 ESE 3 6 29.97 1015 10 16 0.00 0.00
3:55 am 03:55 Cloudy 64 17.5 61 15.9 90 90 NNW 14 22 29.99 1016 10 16 0.00 0.00
4:15 am 04:15 Cloudy 65 18.1 61 16 88 88 N 6 9 29.99 1016 10 16 0.00 0.00
4:35 am 04:35 Cloudy 64 18 61 16.1 89 89 ENE 5 7 29.98 1015 10 16 0.00 0.00
4:55 am 04:55 Cloudy with Light Rain 64 17.5 62 16.4 93 93 ESE 6 9 29.98 1015 7 11 0.05 1.27
5:15 am 05:15 Cloudy 64 17.6 62 16.4 93 93 ENE 3 6 29.96 1014 10 16 0.00 0.00
5:35 am 05:35 Cloudy 64 17.7 62 16.6 93 93 NNW 5 7 29.96 1014 10 16 0.00 0.00
5:55 am 05:55 Partly Cloudy 64 18 62 16.6 92 92 ENE 6 9 29.93 1014 10 16 0.00 0.00
6:15 am 06:15 Sunny with Mist and Fog 64 17.5 62 16.7 95 95 SE 8 13 29.94 1014 5 8 0.00 0.00
6:35 am 06:35 Partly Cloudy with Mist and Fog 64 17.5 62 16.8 96 96 SE 7 11 29.95 1014 4 6 0.00 0.00
6:55 am 06:55 Partly Cloudy with Mist and Fog 64 17.5 63 17 97 97 SSE 9 15 29.95 1014 4 6 0.00 0.00
7:15 am 07:15 Mostly Cloudy with Mist and Fog 65 18.1 64 17.6 97 97 SE 3 6 29.95 1014 4 6 0.00 0.00
7:35 am 07:35 Cloudy with Mist and Fog 65 18.6 65 18.1 97 97 SSE 6 9 29.95 1014 3 5 0.00 0.00
7:55 am 07:55 Cloudy with Mist and Fog 66 18.9 65 18.2 96 96 SE 6 9 29.95 1014 4 6 0.00 0.00
8:15 am 08:15 Cloudy with Mist and Fog 66 18.8 65 18.3 97 97 SSE 5 7 29.95 1014 3 4 0.00 0.00
8:35 am 08:35 Cloudy with Mist and Fog 66 19.1 65 18.6 97 97 SE 6 9 29.94 1014 2 3 0.00 0.00
8:55 am 08:55 Cloudy with Mist and Fog 67 19.3 66 18.7 96 96 SE 7 11 29.95 1014 2 3 0.00 0.00
9:15 am 09:15 Cloudy with Mist and Fog 67 19.2 65 18.5 96 96 SE 12 19 29.94 1014 3 5 0.00 0.00
9:35 am 09:35 Cloudy with Mist and Fog 66 19.1 65 18.6 97 97 ESE 13 20 29.95 1014 3 5 0.00 0.00
9:55 am 09:55 Cloudy with Mist and Fog 67 19.3 65 18.6 96 96 ESE 14 22 29.94 1014 3 5 0.00 0.00
10:15 am 10:15 Cloudy with Mist and Fog 67 19.3 65 18.5 95 95 ESE 15 24 29.96 1015 5 8 0.00 0.00
10:35 am 10:35 Cloudy 67 19.3 65 18.5 95 95 ESE 10 17 29.97 1015 7 11 0.00 0.00
10:55 am 10:55 Cloudy 68 19.9 65 18.5 92 92 SE 10 17 29.96 1014 10 16 0.00 0.00
11:15 am 11:15 Cloudy 69 20.3 65 18.4 89 89 SE 9 15 29.95 1014 10 16 0.00 0.00
11:35 am 11:35 Cloudy 69 20.8 65 18.4 86 86 SE 7 11 29.96 1015 10 16 0.00 0.00
11:55 am 11:55 Cloudy 72 22 66 18.9 83 83 SSE 7 11 29.95 1014 10 16 0.00 0.00
12:15 pm 12:15 Cloudy 73 22.9 66 19 79 79 SSE 12 19 29.94 1014 10 16 0.00 0.00
12:35 pm 12:35 Cloudy 73 22.5 66 18.8 80 80 SSE 7 11 29.95 1014 10 16 0.00 0.00
12:55 pm 12:55 Cloudy 73 22.7 66 19 80 80 S 6 9 29.94 1014 10 16 0.00 0.00
1:15 pm 13:15 Cloudy 74 23.1 66 19 78 78 SSW 5 7 29.94 1014 10 16 0.00 0.00
1:35 pm 13:35 Cloudy 74 23.6 66 19 75 75 Calm 29.94 1014 10 16 0.00 0.00
1:55 pm 13:55 Cloudy 76 24.4 66 19 72 72 SSW 5 7 29.92 1013 10 16 0.00 0.00
2:15 pm 14:15 Partly Cloudy 77 24.9 66 18.8 69 69 SSE 5 7 29.92 1013 10 16 0.00 0.00
2:35 pm 14:35 Partly Cloudy 77 25.1 66 19.1 69 69 Calm 29.91 1013 10 16 0.00 0.00
2:55 pm 14:55 Partly Cloudy 79 25.9 66 19 66 66 Calm 29.90 1013 10 16 0.00 0.00
3:15 pm 15:15 Partly Cloudy 81 27 67 19.4 63 63 Calm 29.88 1012 10 16 0.00 0.00
3:35 pm 15:35 Sunny 80 26.5 66 18.7 62 62 E 5 7 29.88 1012 10 16 0.00 0.00
3:55 pm 15:55 Partly Cloudy 81 27.2 65 18.6 59 59 SW 3 6 29.88 1012 10 16 0.00 0.00
4:15 pm 16:15 Partly Cloudy 82 27.8 64 17.9 55 55 ESE 8 13 29.86 1011 10 16 0.00 0.00
4:35 pm 16:35 Partly Cloudy 83 28.1 64 17.8 54 54 ESE 7 11 29.86 1011 10 16 0.00 0.00
4:55 pm 16:55 Partly Cloudy 83 28.6 64 17.9 52 52 E 7 11 29.85 1011 10 16 0.00 0.00
5:15 pm 17:15 Sunny 83 28.5 64 17.7 52 52 E 8 13 29.85 1011 10 16 0.00 0.00
5:35 pm 17:35 Sunny 84 28.8 64 17.9 52 52 SE 6 9 29.85 1011 10 16 0.00 0.00
5:55 pm 17:55 Sunny 84 29 65 18.1 52 52 E 6 9 29.85 1011 10 16 0.00 0.00
6:15 pm 18:15 Sunny 84 29 64 17.6 50 50 E 9 15 29.85 1011 10 16 0.00 0.00
6:35 pm 18:35 Sunny 83 28.5 64 17.8 52 52 E 8 13 29.84 1010 10 16 0.00 0.00
6:55 pm 18:55 Sunny 83 28.2 65 18.6 56 56 E 12 19 29.84 1011 10 16 0.00 0.00
7:15 pm 19:15 Sunny 82 27.7 66 18.7 58 58 ESE 10 17 29.85 1011 10 16 0.00 0.00
7:35 pm 19:35 Sunny 81 27.1 66 19 61 61 E 10 17 29.85 1011 10 16 0.00 0.00
7:55 pm 19:55 Sunny 80 26.6 66 19 63 63 E 13 20 29.85 1011 10 16 0.00 0.00
8:15 pm 20:15 Sunny 79 25.9 66 19 66 66 E 9 15 29.87 1011 10 16 0.00 0.00
8:35 pm 20:35 Sunny 77 25 67 19.3 71 71 E 8 13 29.88 1012 10 16 0.00 0.00
8:55 pm 20:55 Sunny 75 23.7 67 19.3 76 76 E 8 13 29.89 1012 10 16 0.00 0.00
9:15 pm 21:15 Clear 73 22.6 66 19 80 80 E 8 13 29.90 1012 10 16 0.00 0.00
9:35 pm 21:35 Clear 71 21.8 66 19 84 84 E 8 13 29.91 1013 10 16 0.00 0.00
9:55 pm 21:55 Clear 70 21.3 66 18.8 86 86 ESE 8 13 29.92 1013 10 16 0.00 0.00
10:15 pm 22:15 Clear 69 20.6 65 18.6 88 88 ESE 6 9 29.93 1014 10 16 0.00 0.00
10:35 pm 22:35 Clear 68 20.1 65 18.6 91 91 ESE 6 9 29.95 1014 10 16 0.00 0.00
10:55 pm 22:55 Clear 68 19.9 65 18.4 91 91 SE 6 9 29.96 1014 10 16 0.00 0.00
11:15 pm 23:15 Clear 67 19.6 65 18.4 93 93 SE 7 11 29.96 1015 10 16 0.00 0.00
11:35 pm 23:35 Clear 68 20 65 18.6 92 92 SE 8 13 29.96 1014 10 16 0.00 0.00
11:55 pm 23:55 Clear 68 20 66 18.7 92 92 SE 9 15 29.96 1014 10 16 0.00 0.00

Powered by AerisWeather